Time,TemperatureF,DewpointF,PressureIn,WindDirection,WindDirectionDegrees,WindSpeedMPH,WindSpeedGustMPH,Humidity,HourlyPrecipIn,Conditions,Clouds,dailyrainin,SolarRadiationWatts/m^2,SoftwareType,DateUTC
2013-09-29 00:01:00,67.0,61.3,30.07,North,350,3.0,3.0,82,0.00,FEW,,0.00,0.0,WeatherDisplay:10.37,2013-09-29 04:01:00,
2013-09-29 00:06:00,66.8,61.1,30.07,NNW,346,3.5,3.5,82,0.00,FEW,,0.00,0.0,WeatherDisplay:10.37,2013-09-29 04:06:00,
2013-09-29 00:11:00,66.6,61.3,30.07,North,8,4.6,4.6,83,0.00,FEW,,0.00,0.0,WeatherDisplay:10.37,2013-09-29 04:11:00,
2013-09-29 00:16:00,66.5,60.8,30.07,North,349,3.5,3.5,82,0.00,FEW,,0.00,0.0,WeatherDisplay:10.37,2013-09-29 04:16:00,
2013-09-29 00:21:00,66.3,60.6,30.08,NNW,340,3.5,3.5,82,0.00,FEW,,0.00,0.0,WeatherDisplay:10.37,2013-09-29 04:21:00,
2013-09-29 00:26:00,66.3,60.6,30.07,North,8,8.1,8.1,82,0.00,FEW,,0.00,0.0,WeatherDisplay:10.37,2013-09-29 04:26:00,
2013-09-29 00:31:00,66.3,60.6,30.07,NNW,333,4.0,4.0,82,0.00,FEW,,0.00,0.0,WeatherDisplay:10.37,2013-09-29 04:31:00,
2013-09-29 00:36:00,66.3,60.3,30.07,North,349,8.1,8.1,81,0.00,FEW,,0.00,0.0,WeatherDisplay:10.37,2013-09-29 04:36:00,
2013-09-29 00:41:00,66.3,60.3,30.08,North,349,3.5,3.5,81,0.00,FEW,,0.00,0.0,WeatherDisplay:10.37,2013-09-29 04:41:00,
2013-09-29 00:46:00,66.3,60.3,30.07,North,359,3.5,3.5,81,0.00,FEW,,0.00,0.0,WeatherDisplay:10.37,2013-09-29 04:46:00,
2013-09-29 00:51:00,66.2,60.2,30.07,North,4,6.9,6.9,81,0.00,FEW,,0.00,0.0,WeatherDisplay:10.37,2013-09-29 04:51:00,
2013-09-29 00:56:00,66.2,60.2,30.07,North,8,3.5,3.5,81,0.00,FEW,,0.00,0.0,WeatherDisplay:10.37,2013-09-29 04:56:00,
2013-09-29 01:01:00,66.1,60.1,30.07,NNW,343,3.5,3.5,81,0.00,FEW,,0.00,0.0,WeatherDisplay:10.37,2013-09-29 05:01:00,
2013-09-29 01:06:00,66.0,60.0,30.07,NNW,335,3.5,3.5,81,0.00,FEW,,0.00,0.0,WeatherDisplay:10.37,2013-09-29 05:06:00,
2013-09-29 01:11:00,66.0,60.0,30.07,NNE,14,4.6,4.6,81,0.00,FEW,,0.00,0.0,WeatherDisplay:10.37,2013-09-29 05:11:00,
2013-09-29 01:16:00,66.0,59.7,30.07,North,354,3.5,3.5,80,0.00,FEW,,0.00,0.0,WeatherDisplay:10.37,2013-09-29 05:16:00,
2013-09-29 01:21:00,66.0,59.7,30.07,NW,320,8.1,8.1,80,0.00,FEW,,0.00,0.0,WeatherDisplay:10.37,2013-09-29 05:21:00,
2013-09-29 01:26:00,65.9,59.6,30.07,North,359,3.5,3.5,80,0.00,FEW,,0.00,0.0,WeatherDisplay:10.37,2013-09-29 05:26:00,
2013-09-29 01:31:00,65.9,59.6,30.07,NNE,21,6.9,6.9,80,0.00,FEW,,0.00,0.0,WeatherDisplay:10.37,2013-09-29 05:31:00,
2013-09-29 01:36:00,65.8,59.8,30.07,North,10,5.8,5.8,81,0.00,FEW,,0.00,0.0,WeatherDisplay:10.37,2013-09-29 05:36:00,
2013-09-29 01:41:00,65.7,59.7,30.07,North,4,6.0,6.0,81,0.00,FEW,,0.00,0.0,WeatherDisplay:10.37,2013-09-29 05:41:00,
2013-09-29 01:46:00,65.7,60.1,30.07,NNW,342,3.5,3.5,82,0.00,FEW,,0.00,0.0,WeatherDisplay:10.37,2013-09-29 05:46:00,
2013-09-29 01:51:00,65.6,60.0,30.06,NNE,24,4.6,4.6,82,0.00,FEW,,0.00,0.0,WeatherDisplay:10.37,2013-09-29 05:51:00,
2013-09-29 01:56:00,65.5,59.9,30.06,NNW,345,5.8,5.8,82,0.00,FEW,,0.00,0.0,WeatherDisplay:10.37,2013-09-29 05:56:00,
2013-09-29 02:01:00,65.4,60.1,30.06,NNW,328,4.6,4.6,83,0.00,FEW,,0.00,0.0,WeatherDisplay:10.37,2013-09-29 06:01:00,
2013-09-29 02:06:00,65.3,60.3,30.06,NE,36,4.6,4.6,84,0.00,FEW,,0.00,0.0,WeatherDisplay:10.37,2013-09-29 06:06:00,
2013-09-29 02:11:00,65.2,60.2,30.06,NNE,25,5.8,5.8,84,0.00,FEW,,0.00,0.0,WeatherDisplay:10.37,2013-09-29 06:11:00,
2013-09-29 02:16:00,65.0,60.0,30.06,NNW,333,5.8,5.8,84,0.00,FEW,,0.00,0.0,WeatherDisplay:10.37,2013-09-29 06:16:00,
2013-09-29 02:21:00,65.0,60.4,30.06,North,359,9.2,9.2,85,0.00,FEW,,0.00,0.0,WeatherDisplay:10.37,2013-09-29 06:21:00,
2013-09-29 02:26:00,64.9,60.3,30.06,North,359,3.0,3.0,85,0.00,FEW,,0.00,0.0,WeatherDisplay:10.37,2013-09-29 06:26:00,
2013-09-29 02:32:00,64.8,60.5,30.06,NNW,345,5.8,5.8,86,0.00,FEW,,0.00,0.0,WeatherDisplay:10.37,2013-09-29 06:32:00,
2013-09-29 02:37:00,64.7,60.4,30.05,NNW,348,9.2,9.2,86,0.00,FEW,,0.00,0.0,WeatherDisplay:10.37,2013-09-29 06:37:00,
2013-09-29 02:42:00,64.6,60.3,30.05,NNE,12,4.6,4.6,86,0.00,FEW,,0.00,0.0,WeatherDisplay:10.37,2013-09-29 06:42:00,
2013-09-29 02:47:00,64.5,60.2,30.05,NNE,23,6.0,6.0,86,0.00,FEW,,0.00,0.0,WeatherDisplay:10.37,2013-09-29 06:47:00,
2013-09-29 02:52:00,64.5,60.5,30.05,North,4,3.5,3.5,87,0.00,FEW,,0.00,0.0,WeatherDisplay:10.37,2013-09-29 06:52:00,
2013-09-29 02:57:00,64.4,60.4,30.05,North,354,4.6,4.6,87,0.00,FEW,,0.00,0.0,WeatherDisplay:10.37,2013-09-29 06:57:00,
2013-09-29 03:02:00,64.3,60.7,30.05,North,359,4.6,4.6,88,0.00,FEW,,0.00,0.0,WeatherDisplay:10.37,2013-09-29 07:02:00,
2013-09-29 03:07:00,64.2,60.6,30.05,NE,40,3.5,3.5,88,0.00,FEW,,0.00,0.0,WeatherDisplay:10.37,2013-09-29 07:07:00,
2013-09-29 03:12:00,64.1,60.5,30.05,North,354,4.6,4.6,88,0.00,FEW,,0.00,0.0,WeatherDisplay:10.37,2013-09-29 07:12:00,
2013-09-29 03:17:00,64.0,60.7,30.05,North,4,5.8,5.8,89,0.00,FEW,,0.00,0.0,WeatherDisplay:10.37,2013-09-29 07:17:00,
2013-09-29 03:22:00,63.9,60.6,30.05,North,354,3.5,3.5,89,0.00,FEW,,0.00,0.0,WeatherDisplay:10.37,2013-09-29 07:22:00,
2013-09-29 03:27:00,63.9,60.6,30.04,North,4,4.6,4.6,89,0.00,FEW,,0.00,0.0,WeatherDisplay:10.37,2013-09-29 07:27:00,
2013-09-29 03:32:00,63.8,60.5,30.05,NNE,14,8.1,8.1,89,0.00,FEW,,0.00,0.0,WeatherDisplay:10.37,2013-09-29 07:32:00,
2013-09-29 03:37:00,63.8,60.5,30.05,North,4,3.5,3.5,89,0.00,FEW,,0.00,0.0,WeatherDisplay:10.37,2013-09-29 07:37:00,
2013-09-29 03:42:00,63.7,60.7,30.04,NNW,347,4.6,4.6,90,0.00,FEW,,0.00,0.0,WeatherDisplay:10.37,2013-09-29 07:42:00,
2013-09-29 03:47:00,63.7,60.7,30.04,North,10,3.5,3.5,90,0.00,FEW,,0.00,0.0,WeatherDisplay:10.37,2013-09-29 07:47:00,
2013-09-29 03:52:00,63.7,60.7,30.04,NNE,17,4.6,4.6,90,0.00,FEW,,0.00,0.0,WeatherDisplay:10.37,2013-09-29 07:52:00,
2013-09-29 03:57:00,63.7,60.7,30.04,North,354,2.3,2.6,90,0.00,FEW,,0.00,0.0,WeatherDisplay:10.37,2013-09-29 07:57:00,
2013-09-29 04:03:00,63.7,61.0,30.04,NNE,25,5.0,5.0,91,0.00,FEW,,0.00,0.0,WeatherDisplay:10.37,2013-09-29 08:03:00,
2013-09-29 04:08:00,63.6,60.9,30.04,North,4,4.6,4.6,91,0.00,CLR,,0.00,0.0,WeatherDisplay:10.37,2013-09-29 08:08:00,
2013-09-29 04:13:00,63.5,60.8,30.04,NNE,20,3.5,3.5,91,0.00,CLR,,0.00,0.0,WeatherDisplay:10.37,2013-09-29 08:13:00,
2013-09-29 04:18:00,63.5,60.8,30.04,NE,50,4.6,4.6,91,0.00,CLR,,0.00,0.0,WeatherDisplay:10.37,2013-09-29 08:18:00,
2013-09-29 04:23:00,63.4,60.7,30.04,North,350,2.3,2.3,91,0.00,CLR,,0.00,0.0,WeatherDisplay:10.37,2013-09-29 08:23:00,
2013-09-29 04:28:00,63.3,60.6,30.04,NNW,341,3.5,3.5,91,0.00,CLR,,0.00,0.0,WeatherDisplay:10.37,2013-09-29 08:28:00,
2013-09-29 04:33:00,63.3,60.9,30.04,North,10,3.5,3.5,92,0.00,CLR,,0.00,0.0,WeatherDisplay:10.37,2013-09-29 08:33:00,
2013-09-29 04:38:00,63.2,60.8,30.04,NNE,12,3.5,3.5,92,0.00,CLR,,0.00,0.0,WeatherDisplay:10.37,2013-09-29 08:38:00,
2013-09-29 04:43:00,63.1,60.7,30.04,North,4,2.3,2.3,92,0.00,CLR,,0.00,0.0,WeatherDisplay:10.37,2013-09-29 08:43:00,
2013-09-29 04:48:00,63.0,60.6,30.04,NNE,33,3.5,3.5,92,0.00,CLR,,0.00,0.0,WeatherDisplay:10.37,2013-09-29 08:48:00,
2013-09-29 04:53:00,62.9,60.5,30.04,NNW,342,2.3,2.3,92,0.00,CLR,,0.00,0.0,WeatherDisplay:10.37,2013-09-29 08:53:00,
2013-09-29 04:58:00,62.9,60.8,30.04,North,350,3.5,3.5,93,0.00,CLR,,0.00,0.0,WeatherDisplay:10.37,2013-09-29 08:58:00,
2013-09-29 05:03:00,62.8,60.7,30.04,NNE,23,2.3,2.3,93,0.00,CLR,,0.00,0.0,WeatherDisplay:10.37,2013-09-29 09:03:00,
2013-09-29 05:08:00,62.7,60.6,30.05,NNW,345,3.5,3.5,93,0.00,CLR,,0.00,0.0,WeatherDisplay:10.37,2013-09-29 09:08:00,
2013-09-29 05:13:00,62.7,60.6,30.05,North,359,8.0,8.0,93,0.00,CLR,,0.00,0.0,WeatherDisplay:10.37,2013-09-29 09:13:00,
2013-09-29 05:18:00,62.6,60.5,30.05,ENE,77,5.0,5.0,93,0.00,CLR,,0.00,0.0,WeatherDisplay:10.37,2013-09-29 09:18:00,
2013-09-29 05:23:00,62.6,60.8,30.05,NNW,348,4.0,4.0,94,0.00,CLR,,0.00,0.0,WeatherDisplay:10.37,2013-09-29 09:23:00,
2013-09-29 05:28:00,62.6,60.5,30.04,North,349,5.8,5.8,93,0.00,CLR,,0.00,0.0,WeatherDisplay:10.37,2013-09-29 09:28:00,
2013-09-29 05:33:00,62.6,60.5,30.05,North,11,4.0,4.0,93,0.00,CLR,,0.00,0.0,WeatherDisplay:10.37,2013-09-29 09:33:00,
2013-09-29 05:38:00,62.6,60.5,30.05,East,83,6.9,6.9,93,0.00,FEW,,0.00,0.0,WeatherDisplay:10.37,2013-09-29 09:38:00,
2013-09-29 05:43:00,62.5,60.4,30.05,North,8,4.6,4.6,93,0.00,FEW,,0.00,0.0,WeatherDisplay:10.37,2013-09-29 09:43:00,
2013-09-29 05:48:00,62.4,60.3,30.05,North,4,6.9,6.9,93,0.00,FEW,,0.00,0.0,WeatherDisplay:10.37,2013-09-29 09:48:00,
2013-09-29 05:53:00,62.4,60.3,30.05,North,4,6.9,6.9,93,0.00,FEW,,0.00,0.0,WeatherDisplay:10.37,2013-09-29 09:53:00,
2013-09-29 05:58:00,62.3,60.2,30.05,NNW,340,10.4,10.4,93,0.00,FEW,,0.00,0.0,WeatherDisplay:10.37,2013-09-29 09:58:00,
2013-09-29 06:03:00,62.3,60.2,30.05,North,354,8.1,8.1,93,0.00,FEW,,0.00,0.0,WeatherDisplay:10.37,2013-09-29 10:03:00,
2013-09-29 06:08:00,62.3,60.2,30.05,NE,45,3.5,3.5,93,0.00,FEW,,0.00,0.0,WeatherDisplay:10.37,2013-09-29 10:08:00,
2013-09-29 06:13:00,62.2,60.2,30.05,North,4,4.6,4.6,93,0.00,FEW,,0.00,0.0,WeatherDisplay:10.37,2013-09-29 10:13:00,
2013-09-29 06:18:00,62.1,60.4,30.06,NNE,29,6.9,6.9,94,0.00,FEW,,0.00,0.0,WeatherDisplay:10.37,2013-09-29 10:18:00,
2013-09-29 06:23:00,62.1,60.4,30.06,NNW,347,8.1,8.1,94,0.00,FEW,,0.00,0.0,WeatherDisplay:10.37,2013-09-29 10:23:00,
2013-09-29 06:28:00,62.0,60.3,30.06,North,354,5.8,5.8,94,0.00,FEW,,0.00,0.0,WeatherDisplay:10.37,2013-09-29 10:28:00,
2013-09-29 06:33:00,62.0,60.3,30.06,NE,43,4.0,4.0,94,0.00,FEW,,0.00,0.0,WeatherDisplay:10.37,2013-09-29 10:33:00,
2013-09-29 06:38:00,61.9,60.2,30.06,North,354,4.6,4.6,94,0.00,FEW,,0.00,0.0,WeatherDisplay:10.37,2013-09-29 10:38:00,
2013-09-29 06:43:00,61.8,60.1,30.06,NNE,14,7.0,7.0,94,0.00,FEW,,0.00,0.0,WeatherDisplay:10.37,2013-09-29 10:43:00,
2013-09-29 06:48:00,61.8,60.1,30.06,ENE,57,4.6,4.6,94,0.00,FEW,,0.00,0.0,WeatherDisplay:10.37,2013-09-29 10:48:00,
2013-09-29 06:53:00,61.7,60.0,30.06,NNW,347,4.6,4.6,94,0.00,FEW,,0.00,0.0,WeatherDisplay:10.37,2013-09-29 10:53:00,
2013-09-29 06:58:00,61.6,59.9,30.06,NNW,347,8.1,8.1,94,0.00,FEW,,0.00,0.0,WeatherDisplay:10.37,2013-09-29 10:58:00,
2013-09-29 07:03:00,61.6,60.2,30.06,North,8,5.8,5.8,95,0.00,CLR,,0.00,0.0,WeatherDisplay:10.37,2013-09-29 11:03:00,
2013-09-29 07:08:00,61.5,60.1,30.06,NNW,346,8.1,8.1,95,0.00,CLR,,0.00,0.0,WeatherDisplay:10.37,2013-09-29 11:08:00,
2013-09-29 07:13:00,61.4,60.0,30.06,North,4,9.2,9.2,95,0.00,CLR,,0.00,0.0,WeatherDisplay:10.37,2013-09-29 11:13:00,
2013-09-29 07:18:00,61.4,60.0,30.06,North,349,8.1,8.1,95,0.00,CLR,,0.00,0.0,WeatherDisplay:10.37,2013-09-29 11:18:00,
2013-09-29 07:23:00,61.4,59.7,30.06,NNW,335,4.6,4.6,94,0.00,CLR,,0.00,0.0,WeatherDisplay:10.37,2013-09-29 11:23:00,
2013-09-29 07:28:00,61.3,59.9,30.06,North,4,4.6,4.6,95,0.00,CLR,,0.00,0.0,WeatherDisplay:10.37,2013-09-29 11:28:00,
2013-09-29 07:33:00,61.3,59.9,30.06,NE,36,5.8,5.8,95,0.00,CLR,,0.00,0.0,WeatherDisplay:10.37,2013-09-29 11:33:00,
2013-09-29 07:38:00,61.3,59.9,30.06,North,350,4.6,4.6,95,0.00,CLR,,0.00,0.0,WeatherDisplay:10.37,2013-09-29 11:38:00,
2013-09-29 07:43:00,61.3,59.9,30.06,NNE,21,4.0,4.0,95,0.00,CLR,,0.00,0.0,WeatherDisplay:10.37,2013-09-29 11:43:00,
2013-09-29 07:48:00,61.3,59.9,30.06,North,354,3.5,3.5,95,0.00,CLR,,0.00,0.0,WeatherDisplay:10.37,2013-09-29 11:48:00,
2013-09-29 07:53:00,61.3,59.9,30.06,NNW,347,4.6,4.6,95,0.00,CLR,,0.00,0.0,WeatherDisplay:10.37,2013-09-29 11:53:00,
2013-09-29 07:58:00,61.4,59.7,30.06,North,4,5.8,5.8,94,0.00,CLR,,0.00,0.0,WeatherDisplay:10.37,2013-09-29 11:58:00,
2013-09-29 08:03:00,61.5,60.1,30.06,NNW,347,11.5,11.5,95,0.00,SCT,,0.00,0.0,WeatherDisplay:10.37,2013-09-29 12:03:00,
2013-09-29 08:08:00,61.6,59.9,30.06,NW,323,8.1,8.1,94,0.00,SCT,,0.00,0.0,WeatherDisplay:10.37,2013-09-29 12:08:00,
2013-09-29 08:13:00,61.8,60.1,30.07,NE,52,3.5,3.5,94,0.00,SCT,,0.00,0.0,WeatherDisplay:10.37,2013-09-29 12:13:00,
2013-09-29 08:19:00,62.0,60.3,30.07,NNW,347,8.1,8.1,94,0.00,SCT,,0.00,0.0,WeatherDisplay:10.37,2013-09-29 12:19:00,
2013-09-29 08:24:00,62.2,60.5,30.07,NNE,18,6.9,6.9,94,0.00,SCT,,0.00,0.0,WeatherDisplay:10.37,2013-09-29 12:24:00,
2013-09-29 08:29:00,62.4,60.3,30.07,North,359,10.4,10.4,93,0.00,SCT,,0.00,0.0,WeatherDisplay:10.37,2013-09-29 12:29:00,
2013-09-29 08:34:00,62.5,60.4,30.07,North,354,6.9,6.9,93,0.00,SCT,,0.00,0.0,WeatherDisplay:10.37,2013-09-29 12:34:00,
2013-09-29 08:39:00,62.8,60.7,30.07,NNE,22,6.9,6.9,93,0.00,SCT,,0.00,0.0,WeatherDisplay:10.37,2013-09-29 12:39:00,
2013-09-29 08:44:00,63.3,60.9,30.07,NNE,27,8.1,8.1,92,0.00,SCT,,0.00,0.0,WeatherDisplay:10.37,2013-09-29 12:44:00,
2013-09-29 08:49:00,63.8,60.8,30.07,NE,42,4.6,4.6,90,0.00,SCT,,0.00,0.0,WeatherDisplay:10.37,2013-09-29 12:49:00,
2013-09-29 08:54:00,64.1,61.1,30.07,NW,312,10.4,10.4,90,0.00,SCT,,0.00,0.0,WeatherDisplay:10.37,2013-09-29 12:54:00,
2013-09-29 08:59:00,64.5,61.2,30.07,North,349,6.9,6.9,89,0.00,SCT,,0.00,0.0,WeatherDisplay:10.37,2013-09-29 12:59:00,
2013-09-29 09:04:00,64.8,61.2,30.07,North,11,9.2,9.2,88,0.00,SCT,,0.00,0.0,WeatherDisplay:10.37,2013-09-29 13:04:00,
2013-09-29 09:09:00,65.0,61.0,30.06,North,4,4.6,4.6,87,0.00,SCT,,0.00,0.0,WeatherDisplay:10.37,2013-09-29 13:09:00,
2013-09-29 09:14:00,65.4,60.8,30.07,NE,52,11.5,11.5,85,0.00,SCT,,0.00,0.0,WeatherDisplay:10.37,2013-09-29 13:14:00,
2013-09-29 09:19:00,65.9,60.9,30.07,NNE,28,3.5,3.5,84,0.00,FEW,,0.00,0.0,WeatherDisplay:10.37,2013-09-29 13:19:00,
2013-09-29 09:24:00,66.2,60.2,30.06,NNW,347,8.1,8.1,81,0.00,FEW,,0.00,0.0,WeatherDisplay:10.37,2013-09-29 13:24:00,
2013-09-29 09:29:00,66.5,60.5,30.06,NNW,340,3.5,3.5,81,0.00,FEW,,0.00,0.0,WeatherDisplay:10.37,2013-09-29 13:29:00,
2013-09-29 09:34:00,67.0,60.3,30.06,NNW,336,5.8,5.8,79,0.00,FEW,,0.00,0.0,WeatherDisplay:10.37,2013-09-29 13:34:00,
2013-09-29 09:39:00,67.5,60.8,30.07,ENE,63,3.5,3.5,79,0.00,FEW,,0.00,0.0,WeatherDisplay:10.37,2013-09-29 13:39:00,
2013-09-29 09:44:00,67.7,59.9,30.07,North,4,9.2,9.2,76,0.00,FEW,,0.00,0.0,WeatherDisplay:10.37,2013-09-29 13:44:00,
2013-09-29 09:49:00,67.7,59.9,30.07,North,350,3.5,3.5,76,0.00,FEW,,0.00,0.0,WeatherDisplay:10.37,2013-09-29 13:49:00,
2013-09-29 09:54:00,68.1,59.9,30.07,North,8,8.1,8.1,75,0.00,FEW,,0.00,0.0,WeatherDisplay:10.37,2013-09-29 13:54:00,
2013-09-29 09:59:00,68.6,60.4,30.07,North,354,5.8,5.8,75,0.00,FEW,,0.00,0.0,WeatherDisplay:10.37,2013-09-29 13:59:00,
2013-09-29 10:04:00,69.0,61.1,30.07,NNE,23,4.6,4.6,76,0.00,FEW,,0.00,0.0,WeatherDisplay:10.37,2013-09-29 14:04:00,
2013-09-29 10:09:00,69.5,60.5,30.07,North,4,9.2,9.2,73,0.00,FEW,,0.00,0.0,WeatherDisplay:10.37,2013-09-29 14:09:00,
2013-09-29 10:14:00,69.6,60.2,30.07,North,8,6.9,6.9,72,0.00,FEW,,0.00,0.0,WeatherDisplay:10.37,2013-09-29 14:14:00,
2013-09-29 10:19:00,69.9,60.5,30.07,North,354,8.1,8.1,72,0.00,FEW,,0.00,0.0,WeatherDisplay:10.37,2013-09-29 14:19:00,
2013-09-29 10:24:00,70.2,60.0,30.07,ENE,70,4.6,4.6,70,0.00,FEW,,0.00,0.0,WeatherDisplay:10.37,2013-09-29 14:24:00,
2013-09-29 10:29:00,70.4,59.7,30.07,NNW,345,4.0,4.0,69,0.00,FEW,,0.00,0.0,WeatherDisplay:10.37,2013-09-29 14:29:00,
2013-09-29 10:34:00,70.8,60.5,30.07,North,10,3.5,3.5,70,0.00,FEW,,0.00,0.0,WeatherDisplay:10.37,2013-09-29 14:34:00,
2013-09-29 10:39:00,71.3,59.4,30.07,NE,35,9.2,9.2,66,0.00,FEW,,0.00,0.0,WeatherDisplay:10.37,2013-09-29 14:39:00,
2013-09-29 10:44:00,71.5,60.4,30.07,NNE,12,3.5,3.6,68,0.00,FEW,,0.00,0.0,WeatherDisplay:10.37,2013-09-29 14:44:00,
2013-09-29 10:49:00,71.5,59.1,30.07,NNW,337,6.9,6.9,65,0.00,FEW,,0.00,0.0,WeatherDisplay:10.37,2013-09-29 14:49:00,
2013-09-29 10:54:00,71.4,59.4,30.07,North,359,8.1,8.1,66,0.00,FEW,,0.00,0.0,WeatherDisplay:10.37,2013-09-29 14:54:00,
2013-09-29 10:59:00,71.9,59.5,30.07,North,359,6.9,6.9,65,0.00,FEW,,0.00,0.0,WeatherDisplay:10.37,2013-09-29 14:59:00,
2013-09-29 11:04:00,72.2,59.8,30.07,NNW,332,8.1,8.1,65,0.00,FEW,,0.00,0.0,WeatherDisplay:10.37,2013-09-29 15:04:00,
2013-09-29 11:09:00,72.2,59.3,30.07,NW,306,11.5,11.5,64,0.00,FEW,,0.00,0.0,WeatherDisplay:10.37,2013-09-29 15:09:00,
2013-09-29 11:14:00,72.3,59.0,30.07,NNE,28,8.1,8.1,63,0.00,FEW,,0.00,0.0,WeatherDisplay:10.37,2013-09-29 15:14:00,
2013-09-29 11:19:00,72.6,58.8,30.07,NNE,27,11.5,11.5,62,0.00,FEW,,0.00,0.0,WeatherDisplay:10.37,2013-09-29 15:19:00,
2013-09-29 11:24:00,73.2,60.3,30.07,NNW,331,4.6,4.6,64,0.00,FEW,,0.00,0.0,WeatherDisplay:10.37,2013-09-29 15:24:00,
2013-09-29 11:29:00,73.4,60.9,30.08,NNW,335,3.5,4.3,65,0.00,FEW,,0.00,0.0,WeatherDisplay:10.37,2013-09-29 15:29:00,
2013-09-29 11:34:00,73.3,59.9,30.08,ENE,64,5.8,5.8,63,0.00,FEW,,0.00,0.0,WeatherDisplay:10.37,2013-09-29 15:34:00,
2013-09-29 11:39:00,73.6,61.1,30.07,NNW,343,8.0,8.0,65,0.00,FEW,,0.00,0.0,WeatherDisplay:10.37,2013-09-29 15:39:00,
2013-09-29 11:44:00,73.7,60.3,30.07,NE,36,11.5,11.5,63,0.00,FEW,,0.00,0.0,WeatherDisplay:10.37,2013-09-29 15:44:00,
2013-09-29 11:49:00,74.0,60.6,30.07,NNW,343,9.2,9.2,63,0.00,FEW,,0.00,0.0,WeatherDisplay:10.37,2013-09-29 15:49:00,
2013-09-29 11:54:00,74.3,60.4,30.07,NNE,17,9.2,9.2,62,0.00,FEW,,0.00,0.0,WeatherDisplay:10.37,2013-09-29 15:54:00,
2013-09-29 11:59:00,74.3,59.5,30.07,NNW,347,11.5,11.5,60,0.00,FEW,,0.00,0.0,WeatherDisplay:10.37,2013-09-29 15:59:00,
2013-09-29 12:04:00,74.4,61.0,30.07,North,354,9.2,9.2,63,0.00,SCT,,0.00,0.0,WeatherDisplay:10.37,2013-09-29 16:04:00,
2013-09-29 12:09:00,74.8,62.7,30.07,West,277,3.5,3.5,66,0.00,SCT,,0.00,0.0,WeatherDisplay:10.37,2013-09-29 16:09:00,
2013-09-29 12:14:00,74.8,60.0,30.06,NNW,348,11.5,11.5,60,0.00,SCT,,0.00,0.0,WeatherDisplay:10.37,2013-09-29 16:14:00,
2013-09-29 12:19:00,74.9,60.5,30.06,NNE,29,8.1,8.1,61,0.00,SCT,,0.00,0.0,WeatherDisplay:10.37,2013-09-29 16:19:00,
2013-09-29 12:24:00,75.1,59.8,30.06,North,354,11.5,11.5,59,0.00,SCT,,0.00,0.0,WeatherDisplay:10.37,2013-09-29 16:24:00,
2013-09-29 12:29:00,75.2,60.4,30.06,North,354,10.4,10.4,60,0.00,SCT,,0.00,0.0,WeatherDisplay:10.37,2013-09-29 16:29:00,
2013-09-29 12:34:00,75.6,59.3,30.06,NE,37,10.4,10.4,57,0.00,SCT,,0.00,0.0,WeatherDisplay:10.37,2013-09-29 16:34:00,
2013-09-29 12:39:00,75.7,60.8,30.06,NNE,27,4.6,4.6,60,0.00,SCT,,0.00,0.0,WeatherDisplay:10.37,2013-09-29 16:39:00,
2013-09-29 12:44:00,75.9,59.1,30.06,NNE,16,10.4,10.4,56,0.00,SCT,,0.00,0.0,WeatherDisplay:10.37,2013-09-29 16:44:00,
2013-09-29 12:49:00,75.8,60.0,30.05,North,9,3.5,3.5,58,0.00,SCT,,0.00,0.0,WeatherDisplay:10.37,2013-09-29 16:49:00,
2013-09-29 12:54:00,75.9,59.1,30.06,North,354,11.0,11.0,56,0.00,SCT,,0.00,0.0,WeatherDisplay:10.37,2013-09-29 16:54:00,
2013-09-29 12:59:00,75.8,58.0,30.05,North,354,8.1,8.1,54,0.00,SCT,,0.00,0.0,WeatherDisplay:10.37,2013-09-29 16:59:00,
2013-09-29 13:04:00,75.7,58.4,30.05,NNE,29,8.1,8.1,55,0.00,SCT,,0.00,0.0,WeatherDisplay:10.37,2013-09-29 17:04:00,
2013-09-29 13:09:00,75.8,58.5,30.04,NE,44,9.2,9.2,55,0.00,SCT,,0.00,0.0,WeatherDisplay:10.37,2013-09-29 17:09:00,
2013-09-29 13:14:00,76.2,58.9,30.04,NNE,23,8.1,8.1,55,0.00,SCT,,0.00,0.0,WeatherDisplay:10.37,2013-09-29 17:14:00,
2013-09-29 13:19:00,76.3,57.9,30.04,NE,48,9.2,9.2,53,0.00,SCT,,0.00,0.0,WeatherDisplay:10.37,2013-09-29 17:19:00,
2013-09-29 13:24:00,76.5,58.1,30.04,NNW,332,10.4,10.4,53,0.00,SCT,,0.00,0.0,WeatherDisplay:10.37,2013-09-29 17:24:00,
2013-09-29 13:29:00,76.1,57.7,30.03,NNE,27,9.2,9.2,53,0.00,SCT,,0.00,0.0,WeatherDisplay:10.37,2013-09-29 17:29:00,
2013-09-29 13:34:00,75.5,57.2,30.04,North,4,9.2,9.2,53,0.00,SCT,,0.00,0.0,WeatherDisplay:10.37,2013-09-29 17:34:00,
2013-09-29 13:39:00,75.6,58.8,30.03,NNE,24,13.0,13.0,56,0.00,SCT,,0.00,0.0,WeatherDisplay:10.37,2013-09-29 17:39:00,
2013-09-29 13:44:00,75.7,59.4,30.03,North,350,2.3,2.3,57,0.00,SCT,,0.00,0.0,WeatherDisplay:10.37,2013-09-29 17:44:00,
2013-09-29 13:49:00,76.0,58.2,30.03,North,354,12.7,12.7,54,0.00,SCT,,0.00,0.0,WeatherDisplay:10.37,2013-09-29 17:49:00,
2013-09-29 13:54:00,76.2,59.9,30.02,NNW,332,5.8,5.8,57,0.00,SCT,,0.00,0.0,WeatherDisplay:10.37,2013-09-29 17:54:00,
2013-09-29 13:59:00,76.3,58.4,30.02,NNW,339,10.4,10.4,54,0.00,SCT,,0.00,0.0,WeatherDisplay:10.37,2013-09-29 17:59:00,
2013-09-29 14:04:00,76.4,59.0,30.02,North,354,9.2,9.2,55,0.00,SCT,,0.00,0.0,WeatherDisplay:10.37,2013-09-29 18:04:00,
2013-09-29 14:09:00,76.5,59.6,30.02,NNE,17,8.1,8.1,56,0.00,SCT,,0.00,0.0,WeatherDisplay:10.37,2013-09-29 18:09:00,
2013-09-29 14:15:00,76.9,58.5,30.02,North,11,4.6,5.9,53,0.00,SCT,,0.00,0.0,WeatherDisplay:10.37,2013-09-29 18:15:00,
2013-09-29 14:20:00,76.7,58.8,30.01,NNE,20,8.1,8.1,54,0.00,SCT,,0.00,0.0,WeatherDisplay:10.37,2013-09-29 18:20:00,
2013-09-29 14:25:00,76.9,59.0,30.01,NNE,25,9.2,9.2,54,0.00,SCT,,0.00,0.0,WeatherDisplay:10.37,2013-09-29 18:25:00,
2013-09-29 14:30:00,77.2,58.7,30.01,North,8,6.9,6.9,53,0.00,SCT,,0.00,0.0,WeatherDisplay:10.37,2013-09-29 18:30:00,
2013-09-29 14:35:00,77.3,59.9,30.01,NNW,347,3.5,3.5,55,0.00,SCT,,0.00,0.0,WeatherDisplay:10.37,2013-09-29 18:35:00,
2013-09-29 14:40:00,77.2,59.3,30.01,WNW,293,5.8,5.8,54,0.00,SCT,,0.00,0.0,WeatherDisplay:10.37,2013-09-29 18:40:00,
2013-09-29 14:45:00,77.2,58.7,30.00,North,349,4.6,4.6,53,0.00,SCT,,0.00,0.0,WeatherDisplay:10.37,2013-09-29 18:45:00,
2013-09-29 14:50:00,77.3,59.9,30.00,North,349,3.5,3.5,55,0.00,SCT,,0.00,0.0,WeatherDisplay:10.37,2013-09-29 18:50:00,
2013-09-29 14:55:00,77.6,59.1,30.00,North,359,6.9,6.9,53,0.00,SCT,,0.00,0.0,WeatherDisplay:10.37,2013-09-29 18:55:00,
2013-09-29 15:00:00,77.5,59.0,30.00,North,354,8.1,8.1,53,0.00,SCT,,0.00,0.0,WeatherDisplay:10.37,2013-09-29 19:00:00,
2013-09-29 15:05:00,77.4,58.9,30.00,NE,34,9.2,9.2,53,0.00,SCT,,0.00,0.0,WeatherDisplay:10.37,2013-09-29 19:05:00,
2013-09-29 15:10:00,77.3,59.4,30.00,NE,41,5.8,5.8,54,0.00,SCT,,0.00,0.0,WeatherDisplay:10.37,2013-09-29 19:10:00,
2013-09-29 15:15:00,77.6,59.6,30.00,NW,320,9.0,9.0,54,0.00,SCT,,0.00,0.0,WeatherDisplay:10.37,2013-09-29 19:15:00,
2013-09-29 15:20:00,77.7,59.7,30.00,NE,40,3.5,3.5,54,0.00,SCT,,0.00,0.0,WeatherDisplay:10.37,2013-09-29 19:20:00,
2013-09-29 15:25:00,77.8,59.8,30.00,NNE,18,8.0,8.0,54,0.00,SCT,,0.00,0.0,WeatherDisplay:10.37,2013-09-29 19:25:00,
2013-09-29 15:30:00,77.5,59.5,29.99,NNW,344,3.5,3.5,54,0.00,SCT,,0.00,0.0,WeatherDisplay:10.37,2013-09-29 19:30:00,
2013-09-29 15:35:00,76.7,59.8,29.99,NNE,16,10.4,10.4,56,0.00,SCT,,0.00,0.0,WeatherDisplay:10.37,2013-09-29 19:35:00,
2013-09-29 15:40:00,76.2,59.4,29.99,SE,125,3.5,3.5,56,0.00,SCT,,0.00,0.0,WeatherDisplay:10.37,2013-09-29 19:40:00,
2013-09-29 15:45:00,75.9,59.6,29.99,North,4,11.5,11.5,57,0.00,SCT,,0.00,0.0,WeatherDisplay:10.37,2013-09-29 19:45:00,
2013-09-29 15:48:00,75.8,59.5,29.99,NNE,26,9.2,9.2,57,0.00,SCT,,0.00,0.0,WeatherDisplay:10.37,2013-09-29 19:48:00,
2013-09-29 15:53:00,75.6,58.8,29.99,NNW,347,9.2,9.2,56,0.00,SCT,,0.00,0.0,WeatherDisplay:10.37,2013-09-29 19:53:00,
2013-09-29 15:58:00,75.3,60.0,29.99,NE,45,3.5,3.5,59,0.00,SCT,,0.00,0.0,WeatherDisplay:10.37,2013-09-29 19:58:00,
2013-09-29 16:03:00,75.1,59.8,29.99,North,359,5.0,5.0,59,0.00,SCT,,0.00,0.0,WeatherDisplay:10.37,2013-09-29 20:03:00,
2013-09-29 16:08:00,74.9,60.1,29.99,North,349,3.5,3.5,60,0.00,SCT,,0.00,0.0,WeatherDisplay:10.37,2013-09-29 20:08:00,
2013-09-29 16:13:00,74.8,60.0,29.99,North,8,4.6,4.6,60,0.00,SCT,,0.00,0.0,WeatherDisplay:10.37,2013-09-29 20:13:00,
2013-09-29 16:18:00,74.6,59.8,29.99,North,354,4.6,4.6,60,0.00,SCT,,0.00,0.0,WeatherDisplay:10.37,2013-09-29 20:18:00,
2013-09-29 16:23:00,74.4,60.1,29.99,NNE,16,6.9,6.9,61,0.00,SCT,,0.00,0.0,WeatherDisplay:10.37,2013-09-29 20:23:00,
2013-09-29 16:28:00,74.4,60.1,29.99,NNW,341,3.5,3.5,61,0.00,SCT,,0.00,0.0,WeatherDisplay:10.37,2013-09-29 20:28:00,
2013-09-29 16:33:00,74.4,60.5,29.99,NE,40,3.5,3.5,62,0.00,SCT,,0.00,0.0,WeatherDisplay:10.37,2013-09-29 20:33:00,
2013-09-29 16:38:00,74.4,60.1,29.99,NE,42,3.5,3.5,61,0.00,SCT,,0.00,0.0,WeatherDisplay:10.37,2013-09-29 20:38:00,
2013-09-29 16:44:00,74.3,60.4,29.99,NNE,28,1.2,1.2,62,0.00,SCT,,0.00,0.0,WeatherDisplay:10.37,2013-09-29 20:44:00,
2013-09-29 16:49:00,74.3,60.4,29.99,North,359,3.5,3.5,62,0.00,SCT,,0.00,0.0,WeatherDisplay:10.37,2013-09-29 20:49:00,
2013-09-29 16:54:00,74.3,60.4,29.99,SE,139,5.8,5.8,62,0.00,SCT,,0.00,0.0,WeatherDisplay:10.37,2013-09-29 20:54:00,
2013-09-29 16:59:00,74.3,59.5,29.99,North,8,8.1,8.1,60,0.00,SCT,,0.00,0.0,WeatherDisplay:10.37,2013-09-29 20:59:00,
2013-09-29 17:04:00,74.2,60.3,29.99,North,349,5.8,5.8,62,0.00,BKN,,0.00,0.0,WeatherDisplay:10.37,2013-09-29 21:04:00,
2013-09-29 17:09:00,74.3,59.5,29.99,NNE,12,8.1,8.1,60,0.00,BKN,,0.00,0.0,WeatherDisplay:10.37,2013-09-29 21:09:00,
2013-09-29 17:14:00,74.4,59.6,29.99,NW,324,9.2,9.2,60,0.00,BKN,,0.00,0.0,WeatherDisplay:10.37,2013-09-29 21:14:00,
2013-09-29 17:19:00,74.3,59.5,29.99,North,4,4.0,4.0,60,0.00,BKN,,0.00,0.0,WeatherDisplay:10.37,2013-09-29 21:19:00,
2013-09-29 17:24:00,74.1,60.2,30.00,NNE,19,3.5,3.5,62,0.00,BKN,,0.00,0.0,WeatherDisplay:10.37,2013-09-29 21:24:00,
2013-09-29 17:29:00,74.0,61.0,30.00,NNW,331,2.3,2.3,64,0.00,BKN,,0.00,0.0,WeatherDisplay:10.37,2013-09-29 21:29:00,
2013-09-29 17:34:00,74.0,61.0,30.00,North,354,3.5,3.5,64,0.00,BKN,,0.00,0.0,WeatherDisplay:10.37,2013-09-29 21:34:00,
2013-09-29 17:39:00,73.9,61.8,30.00,North,4,2.3,2.3,66,0.00,BKN,,0.00,0.0,WeatherDisplay:10.37,2013-09-29 21:39:00,
2013-09-29 17:44:00,73.7,62.5,30.00,North,4,0.0,0.0,68,0.00,BKN,,0.00,0.0,WeatherDisplay:10.37,2013-09-29 21:44:00,
2013-09-29 17:49:00,73.6,62.0,30.00,NE,48,0.0,0.0,67,0.00,BKN,,0.00,0.0,WeatherDisplay:10.37,2013-09-29 21:49:00,
2013-09-29 17:54:00,73.4,61.3,30.00,North,359,3.5,3.5,66,0.00,BKN,,0.00,0.0,WeatherDisplay:10.37,2013-09-29 21:54:00,
2013-09-29 17:59:00,73.4,62.2,30.00,NNE,12,1.2,1.2,68,0.00,BKN,,0.00,0.0,WeatherDisplay:10.37,2013-09-29 21:59:00,
2013-09-29 18:04:00,73.2,60.3,29.99,NNE,30,4.6,4.6,64,0.00,BKN,,0.00,0.0,WeatherDisplay:10.37,2013-09-29 22:04:00,
2013-09-29 18:09:00,73.1,60.6,29.99,NNE,26,3.5,3.5,65,0.00,BKN,,0.00,0.0,WeatherDisplay:10.37,2013-09-29 22:09:00,
2013-09-29 18:14:00,72.9,61.3,29.99,NNE,14,3.5,0.0,67,0.00,BKN,,0.00,0.0,WeatherDisplay:10.37,2013-09-29 22:14:00,
2013-09-29 18:19:00,72.5,60.9,29.99,NNE,23,2.3,2.3,67,0.00,BKN,,0.00,0.0,WeatherDisplay:10.37,2013-09-29 22:19:00,
2013-09-29 18:24:00,72.3,61.1,29.99,NNE,25,3.5,3.5,68,0.00,BKN,,0.00,0.0,WeatherDisplay:10.37,2013-09-29 22:24:00,
2013-09-29 18:29:00,71.9,62.0,30.00,NNE,25,0.0,0.0,71,0.00,BKN,,0.00,0.0,WeatherDisplay:10.37,2013-09-29 22:29:00,
2013-09-29 18:34:00,71.5,62.0,30.00,NNE,25,0.0,0.0,72,0.00,BKN,,0.00,0.0,WeatherDisplay:10.37,2013-09-29 22:34:00,
2013-09-29 18:39:00,71.1,61.6,30.00,NNE,26,0.0,0.0,72,0.00,BKN,,0.00,0.0,WeatherDisplay:10.37,2013-09-29 22:39:00,
2013-09-29 18:44:00,70.9,62.2,30.00,NNE,25,0.0,0.0,74,0.00,BKN,,0.00,0.0,WeatherDisplay:10.37,2013-09-29 22:44:00,
2013-09-29 18:49:00,70.6,62.3,30.00,NNE,25,0.0,0.0,75,0.00,BKN,,0.00,0.0,WeatherDisplay:10.37,2013-09-29 22:49:00,
2013-09-29 18:54:00,70.2,62.3,30.00,NNE,24,0.0,0.0,76,0.00,BKN,,0.00,0.0,WeatherDisplay:10.37,2013-09-29 22:54:00,
2013-09-29 18:59:00,69.9,62.0,30.00,NNE,25,0.0,0.0,76,0.00,BKN,,0.00,0.0,WeatherDisplay:10.37,2013-09-29 22:59:00,
2013-09-29 19:04:00,69.6,62.1,30.00,NNE,25,0.0,0.0,77,0.00,BKN,,0.00,0.0,WeatherDisplay:10.37,2013-09-29 23:04:00,
2013-09-29 19:10:00,69.2,62.0,30.00,NNE,26,0.0,0.0,78,0.00,BKN,,0.00,0.0,WeatherDisplay:10.37,2013-09-29 23:10:00,
2013-09-29 19:15:00,68.8,61.7,30.00,NNE,24,0.0,0.0,78,0.00,BKN,,0.00,0.0,WeatherDisplay:10.37,2013-09-29 23:15:00,
2013-09-29 19:20:00,68.4,61.6,30.00,NNE,25,0.0,0.0,79,0.00,SCT,,0.00,0.0,WeatherDisplay:10.37,2013-09-29 23:20:00,
2013-09-29 19:25:00,68.0,61.2,30.00,NNE,25,0.0,0.0,79,0.00,SCT,,0.00,0.0,WeatherDisplay:10.37,2013-09-29 23:25:00,
2013-09-29 19:30:00,67.7,61.0,30.00,NNE,25,0.0,0.0,79,0.00,SCT,,0.00,0.0,WeatherDisplay:10.37,2013-09-29 23:30:00,
2013-09-29 19:35:00,67.3,60.6,30.00,NNE,25,0.0,0.0,79,0.00,SCT,,0.00,0.0,WeatherDisplay:10.37,2013-09-29 23:35:00,
2013-09-29 19:40:00,66.9,60.5,30.00,NNE,25,0.0,0.0,80,0.00,SCT,,0.00,0.0,WeatherDisplay:10.37,2013-09-29 23:40:00,
2013-09-29 19:45:00,66.6,60.6,30.00,NNE,25,0.0,0.0,81,0.00,SCT,,0.00,0.0,WeatherDisplay:10.37,2013-09-29 23:45:00,
2013-09-29 19:50:00,66.3,60.3,30.00,NNE,25,0.0,0.0,81,0.00,SCT,,0.00,0.0,WeatherDisplay:10.37,2013-09-29 23:50:00,
2013-09-29 19:55:00,66.0,60.0,30.00,NNE,25,0.0,0.0,81,0.00,SCT,,0.00,0.0,WeatherDisplay:10.37,2013-09-29 23:55:00,
2013-09-29 20:00:00,65.7,60.1,30.00,NNE,25,0.0,0.0,82,0.00,SCT,,0.00,0.0,WeatherDisplay:10.37,2013-09-30 00:00:00,
2013-09-29 20:05:00,65.4,59.8,30.00,NNE,25,1.2,0.0,82,0.00,FEW,,0.00,0.0,WeatherDisplay:10.37,2013-09-30 00:05:00,
2013-09-29 20:10:00,65.2,59.6,30.00,NNE,25,0.0,0.0,82,0.00,FEW,,0.00,0.0,WeatherDisplay:10.37,2013-09-30 00:10:00,
2013-09-29 20:15:00,64.9,59.6,30.00,NNE,24,0.0,0.0,83,0.00,FEW,,0.00,0.0,WeatherDisplay:10.37,2013-09-30 00:15:00,
2013-09-29 20:20:00,64.6,59.7,30.01,NNE,24,1.2,0.0,84,0.00,FEW,,0.00,0.0,WeatherDisplay:10.37,2013-09-30 00:20:00,
2013-09-29 20:25:00,64.4,59.8,30.01,NNE,25,0.0,0.1,85,0.00,FEW,,0.00,0.0,WeatherDisplay:10.37,2013-09-30 00:25:00,
2013-09-29 20:30:00,64.1,59.5,30.01,NNE,25,0.0,0.0,85,0.00,FEW,,0.00,0.0,WeatherDisplay:10.37,2013-09-30 00:30:00,
2013-09-29 20:35:00,63.9,59.6,30.01,NNE,25,0.0,0.0,86,0.00,FEW,,0.00,0.0,WeatherDisplay:10.37,2013-09-30 00:35:00,
2013-09-29 20:40:00,63.7,59.4,30.01,NNE,25,0.0,0.0,86,0.00,FEW,,0.00,0.0,WeatherDisplay:10.37,2013-09-30 00:40:00,
2013-09-29 20:45:00,63.6,59.7,30.01,NNE,25,0.0,0.0,87,0.00,FEW,,0.00,0.0,WeatherDisplay:10.37,2013-09-30 00:45:00,
2013-09-29 20:50:00,63.4,59.8,30.01,NNE,25,0.0,0.0,88,0.00,FEW,,0.00,0.0,WeatherDisplay:10.37,2013-09-30 00:50:00,
2013-09-29 20:55:00,63.2,59.6,30.01,NNE,24,0.0,0.0,88,0.00,FEW,,0.00,0.0,WeatherDisplay:10.37,2013-09-30 00:55:00,
2013-09-29 21:00:00,63.0,59.4,30.02,NNE,25,0.0,0.0,88,0.00,FEW,,0.00,0.0,WeatherDisplay:10.37,2013-09-30 01:00:00,
2013-09-29 21:05:00,62.9,59.6,30.02,NNE,25,1.2,1.2,89,0.00,SCT,,0.00,0.0,WeatherDisplay:10.37,2013-09-30 01:05:00,
2013-09-29 21:10:00,62.7,59.7,30.02,NNE,25,0.0,0.0,90,0.00,SCT,,0.00,0.0,WeatherDisplay:10.37,2013-09-30 01:10:00,
2013-09-29 21:15:00,62.6,59.6,30.02,NNE,25,0.0,0.0,90,0.00,SCT,,0.00,0.0,WeatherDisplay:10.37,2013-09-30 01:15:00,
2013-09-29 21:20:00,62.4,59.1,30.02,NNE,25,0.0,0.0,89,0.00,SCT,,0.00,0.0,WeatherDisplay:10.37,2013-09-30 01:20:00,
2013-09-29 21:25:00,62.2,58.9,30.02,NNE,24,0.0,0.0,89,0.00,SCT,,0.00,0.0,WeatherDisplay:10.37,2013-09-30 01:25:00,
2013-09-29 21:30:00,62.1,58.8,30.02,NNE,25,0.0,0.0,89,0.00,SCT,,0.00,0.0,WeatherDisplay:10.37,2013-09-30 01:30:00,
2013-09-29 21:35:00,61.9,58.9,30.02,NNE,25,0.0,0.0,90,0.00,SCT,,0.00,0.0,WeatherDisplay:10.37,2013-09-30 01:35:00,
2013-09-29 21:40:00,61.8,58.8,30.02,NNE,25,0.0,0.0,90,0.00,SCT,,0.00,0.0,WeatherDisplay:10.37,2013-09-30 01:40:00,
2013-09-29 21:45:00,61.7,59.0,30.02,NNE,25,0.0,0.0,91,0.00,SCT,,0.00,0.0,WeatherDisplay:10.37,2013-09-30 01:45:00,
2013-09-29 21:50:00,61.6,58.9,30.02,NNE,25,0.0,0.0,91,0.00,SCT,,0.00,0.0,WeatherDisplay:10.37,2013-09-30 01:50:00,
2013-09-29 21:55:00,61.5,58.8,30.02,NNE,25,0.0,0.0,91,0.00,SCT,,0.00,0.0,WeatherDisplay:10.37,2013-09-30 01:55:00,
2013-09-29 22:00:00,61.4,58.7,30.02,NNE,25,0.0,0.0,91,0.00,SCT,,0.00,0.0,WeatherDisplay:10.37,2013-09-30 02:00:00,
2013-09-29 22:05:00,61.2,58.6,30.02,NNE,25,0.0,0.0,91,0.00,CLR,,0.00,0.0,WeatherDisplay:10.37,2013-09-30 02:05:00,
2013-09-29 22:10:00,61.2,58.9,30.02,NNE,25,0.0,0.0,92,0.00,CLR,,0.00,0.0,WeatherDisplay:10.37,2013-09-30 02:10:00,
2013-09-29 22:15:00,61.1,58.8,30.02,NNE,25,0.0,0.0,92,0.00,CLR,,0.00,0.0,WeatherDisplay:10.37,2013-09-30 02:15:00,
2013-09-29 22:20:00,61.0,58.7,30.02,NNE,25,0.0,0.0,92,0.00,CLR,,0.00,0.0,WeatherDisplay:10.37,2013-09-30 02:20:00,
2013-09-29 22:25:00,60.9,58.9,30.02,NNE,25,0.0,0.0,93,0.00,CLR,,0.00,0.0,WeatherDisplay:10.37,2013-09-30 02:25:00,
2013-09-29 22:30:00,60.9,58.9,30.02,NNE,25,0.0,0.0,93,0.00,CLR,,0.00,0.0,WeatherDisplay:10.37,2013-09-30 02:30:00,
2013-09-29 22:35:00,60.8,58.8,30.02,NNE,25,0.0,0.0,93,0.00,CLR,,0.00,0.0,WeatherDisplay:10.37,2013-09-30 02:35:00,
2013-09-29 22:40:00,60.7,58.7,30.02,NNE,25,0.0,0.0,93,0.00,CLR,,0.00,0.0,WeatherDisplay:10.37,2013-09-30 02:40:00,
2013-09-29 22:45:00,60.6,58.6,30.01,NNE,25,0.0,0.0,93,0.00,CLR,,0.00,0.0,WeatherDisplay:10.37,2013-09-30 02:45:00,
2013-09-29 22:50:00,60.4,58.4,30.01,NNE,25,0.0,0.0,93,0.00,CLR,,0.00,0.0,WeatherDisplay:10.37,2013-09-30 02:50:00,
2013-09-29 22:56:00,60.3,58.3,30.01,NNE,25,0.0,0.0,93,0.00,CLR,,0.00,0.0,WeatherDisplay:10.37,2013-09-30 02:56:00,
2013-09-29 23:01:00,60.2,58.2,30.01,NNE,25,0.0,0.0,93,0.00,CLR,,0.00,0.0,WeatherDisplay:10.37,2013-09-30 03:01:00,
2013-09-29 23:06:00,60.1,58.1,30.02,NNE,25,0.0,0.0,93,0.00,CLR,,0.00,0.0,WeatherDisplay:10.37,2013-09-30 03:06:00,
2013-09-29 23:11:00,60.0,58.3,30.02,NNE,25,0.0,0.0,94,0.00,CLR,,0.00,0.0,WeatherDisplay:10.37,2013-09-30 03:11:00,
2013-09-29 23:16:00,59.9,58.2,30.02,NNE,25,0.0,0.0,94,0.00,CLR,,0.00,0.0,WeatherDisplay:10.37,2013-09-30 03:16:00,
2013-09-29 23:21:00,59.9,58.2,30.01,NNE,25,0.0,0.0,94,0.00,CLR,,0.00,0.0,WeatherDisplay:10.37,2013-09-30 03:21:00,
2013-09-29 23:26:00,59.8,58.1,30.01,NNE,25,0.0,0.0,94,0.00,CLR,,0.00,0.0,WeatherDisplay:10.37,2013-09-30 03:26:00,
2013-09-29 23:31:00,59.7,58.0,30.01,NNE,25,0.0,0.0,94,0.00,CLR,,0.00,0.0,WeatherDisplay:10.37,2013-09-30 03:31:00,
2013-09-29 23:36:00,59.6,57.9,30.01,NNE,25,0.0,0.0,94,0.00,CLR,,0.00,0.0,WeatherDisplay:10.37,2013-09-30 03:36:00,
2013-09-29 23:41:00,59.5,57.8,30.01,NNE,25,0.0,0.0,94,0.00,CLR,,0.00,0.0,WeatherDisplay:10.37,2013-09-30 03:41:00,
2013-09-29 23:46:00,59.3,57.6,30.01,NNE,25,0.0,0.0,94,0.00,CLR,,0.00,0.0,WeatherDisplay:10.37,2013-09-30 03:46:00,
2013-09-29 23:51:00,59.2,57.5,30.01,NNE,25,0.0,0.0,94,0.00,CLR,,0.00,0.0,WeatherDisplay:10.37,2013-09-30 03:51:00,
2013-09-29 23:56:00,59.1,57.4,30.01,NNE,25,0.0,0.0,94,0.00,CLR,,0.00,0.0,WeatherDisplay:10.37,2013-09-30 03:56:00,